DW9142 Weather Reports


time (UTC)temp
C
wind
direction
speed
KPH
gust
KPH
rain 1hr
cm
rain 24hr
cm
rain mn
cm
humidity
%
barometer
mb
20260505121535 15 0.0 0.0 0.00 0.00 0.00 77 1011.3
20260505120031 13 0.0 0.0 0.00 0.00 0.00 84 1011.4
20260505114526 12 0.0 0.0 0.00 0.00 0.00 89 1011.3
20260505113032 12 0.0 0.0 0.00 0.00 0.00 89 1011.2
20260505111620 11 0.0 0.0 0.00 0.00 0.00 88 1011.2
20260505101603 11 0.0 0.0 0.00 0.00 0.00 86 1010.8
20260505100002 11 0.0 0.0 0.00 0.00 0.00 85 1010.6
20260505094557 11 0.0 0.0 0.00 0.00 0.00 84 1010.6
20260505093054 12 0.0 0.0 0.00 0.00 0.00 84 1010.5
20260505091549 12 0.0 0.0 0.00 0.00 0.00 82 1010.4
20260505090030 12 0.0 0.0 0.00 0.00 0.00 81 1010.3
20260505084520 12 0.0 0.0 0.00 0.00 0.00 81 1010.3
20260505083117 13 0.0 0.0 0.00 0.00 0.00 81 1010.4
20260505081557 13 0.0 0.0 0.00 0.00 0.00 80 1010.4
20260505080038 12 0.0 0.0 0.00 0.00 0.00 81 1010.5
20260505074528 12 0.0 0.0 0.00 0.00 0.00 82 1010.4
20260505073009 12 0.0 0.0 0.00 0.00 0.00 82 1010.3
20260505071503 12 0.0 0.0 0.00 0.00 0.00 81 1010.3
20260505070048 12 0.0 0.0 0.00 0.00 0.00 80 1010.2
20260505064552 12 0.0 0.0 0.00 0.00 0.00 79 1010.1
20260505063016 12 0.0 0.0 0.00 0.00 0.00 78 1010.0
20260505061520 12 0.0 0.0 0.00 0.00 0.00 79 1010.1
20260505060050 12 0.0 0.0 0.00 0.00 0.00 78 1010.2
20260505054556 13 0.0 0.0 0.00 0.00 0.00 77 1010.3
20260505053024 13 0.0 0.0 0.00 0.00 0.00 74 1010.3
20260505051521 13 0.0 0.0 0.00 0.00 0.00 73 1010.4
20260505041533 15 0.0 0.0 0.00 0.00 0.00 68 1010.4
20260505040011 15 0.0 0.0 0.00 0.00 0.00 68 1010.3
20260505034504 15 0.0 0.0 0.00 0.00 0.00 66 1010.4
20260505033042 15 0.0 0.0 0.00 0.00 0.00 66 1010.4
20260505031537 15 0.0 0.0 0.00 0.00 0.00 64 1010.6
20260505030016 16 0.0 0.0 0.00 0.00 0.00 62 1010.6
20260505024532 16 0.0 0.0 0.00 0.00 0.00 59 1010.7
20260505023102 16 0.0 0.0 0.00 0.00 0.00 57 1010.7
20260505021552 17 0.0 0.0 0.00 0.00 0.00 55 1010.8
20260505020047 17 0.0 0.0 0.00 0.00 0.00 53 1010.7
20260505014545 17 0.0 0.0 0.00 0.00 0.00 50 1010.7
20260505013038 17 0.0 0.0 0.00 0.00 0.00 49 1010.6
20260505011535 17 0.0 0.0 0.00 0.00 0.00 49 1010.4
20260505010029 17 0.0 0.0 0.00 0.00 0.00 48 1010.2
20260505004525 17 0.0 0.0 0.00 0.00 0.00 48 1010.1
20260505003003 17 0.0 0.0 0.00 0.00 0.00 46 1009.9
20260505001600 18 0.0 0.0 0.00 0.00 0.00 43 1009.9
20260505000042 20 0.0 0.0 0.00 0.00 0.00 40 1009.7
20260504234534 20 0.0 0.0 0.00 0.00 0.00 39 1009.6
20260504233017 20 0.0 0.0 0.00 0.00 0.00 37 1009.4
20260504231522 21 0.0 0.0 0.00 0.00 0.00 36 1009.3
20260504230051 21 0.0 0.0 0.00 0.00 0.00 35 1009.2
20260504224548 21 0.0 0.0 0.00 0.00 0.00 35 1009.2
20260504223044 21 0.0 0.0 0.00 0.00 0.00 34 1009.3
20260504221543 22 0.0 0.0 0.00 0.00 0.00 33 1009.3
20260504220036 22 0.0 0.0 0.00 0.00 0.00 33 1009.3
20260504214530 22 0.0 0.0 0.00 0.00 0.00 32 1009.5
20260504213026 22 0.0 0.0 0.00 0.00 0.00 32 1009.5
20260504211522 23 0.0 0.0 0.00 0.00 0.00 33 1009.6
20260504210116 23 0.0 0.0 0.00 0.00 0.00 31 1009.7
20260504204602 23 0.0 0.0 0.00 0.00 0.00 29 1009.7
20260504203051 23 0.0 0.0 0.00 0.00 0.00 30 1009.7
20260504201529 23 0.0 0.0 0.00 0.00 0.00 30 1009.8
20260504200025 23 0.0 0.0 0.00 0.00 0.00 30 1009.8
20260504194503 23 0.0 0.0 0.00 0.00 0.00 30 1009.9
20260504193059 23 0.0 0.0 0.00 0.00 0.00 30 1010.1
20260504191546 23 0.0 0.0 0.00 0.00 0.00 31 1010.3
20260504190043 24 0.0 0.0 0.00 0.00 0.00 30 1010.5
20260504184513 23 0.0 0.0 0.00 0.00 0.00 29 1010.7
20260504183008 23 0.0 0.0 0.00 0.00 0.00 34 1010.9
20260504181548 23 0.0 0.0 0.00 0.00 0.00 30 1011.0
20260504180112 23 0.0 0.0 0.00 0.00 0.00 32 1011.3
20260504174519 23 0.0 0.0 0.00 0.00 0.00 33 1011.6
20260504173019 22 0.0 0.0 0.00 0.00 0.00 35 1011.7
20260504171556 22 0.0 0.0 0.00 0.00 0.00 34 1011.9